This is the latest recevied weather packets stored in our database for station/object N0QV. If no packets are shown the sender has not sent any weather packets the latest 10 day(s).
| Time | Temp. | Humidity | Pressure | Rain* | Wind** | Luminosity | Snow |
|---|---|---|---|---|---|---|---|
| 1778153511 | 1.67° C | 71% | 1013.7 hPa | 0 mm | - | 16 W/m² | - |
| 1778153209 | 1.67° C | 71% | 1013.7 hPa | 0 mm | - | 13 W/m² | - |
| 1778152905 | 1.67° C | 72% | 1013.6 hPa | 0 mm | - | 12 W/m² | - |
| 1778152603 | 1.67° C | 71% | 1013.6 hPa | 0 mm | - | 8 W/m² | - |
| 1778152299 | 1.67° C | 71% | 1013.5 hPa | 0 mm | - | 6 W/m² | - |
| 1778151996 | 2.22° C | 70% | 1013.4 hPa | 0 mm | - | 4 W/m² | - |
| 1778151693 | 2.22° C | 71% | 1013.5 hPa | 0 mm | - | 1 W/m² | - |
| 1778151389 | 2.22° C | 71% | 1013.4 hPa | 0 mm | - | 0 W/m² | - |
| 1778151085 | 2.22° C | 71% | 1013.6 hPa | 0 mm | - | 0 W/m² | - |
| 1778150783 | 1.67° C | 71% | 1013.6 hPa | 0 mm | - | 0 W/m² | - |
| 1778150479 | 2.22° C | 71% | 1013.5 hPa | 0 mm | - | 0 W/m² | - |
| 1778150175 | 2.22° C | 71% | 1013.4 hPa | 0 mm | - | 0 W/m² | - |
| 1778149872 | 1.67° C | 69% | 1013.4 hPa | 0 mm | - | 0 W/m² | - |
| 1778149569 | 1.67° C | 70% | 1013.6 hPa | 0 mm | - | 0 W/m² | - |
| 1778149265 | 1.67° C | 70% | 1013.6 hPa | 0 mm | - | 0 W/m² | - |
| 1778148961 | 1.67° C | 68% | 1013.8 hPa | 0 mm | - | 0 W/m² | - |
| 1778148657 | 1.67° C | 71% | 1013.5 hPa | 0 mm | - | 0 W/m² | - |
| 1778148354 | 1.67° C | 72% | 1013.8 hPa | 0 mm | - | 0 W/m² | - |
| 1778148053 | 1.67° C | 69% | 1013.7 hPa | 0 mm | - | 0 W/m² | - |
| 1778147750 | 1.67° C | 69% | 1013.8 hPa | 0 mm | - | 0 W/m² | - |
| 1778147447 | 1.67° C | 70% | 1013.8 hPa | 0 mm | - | 0 W/m² | - |
| 1778147143 | 1.67° C | 71% | 1013.9 hPa | 0 mm | - | 0 W/m² | - |
| 1778146840 | 1.67° C | 70% | 1013.8 hPa | 0 mm | - | 0 W/m² | - |
| 1778146537 | 1.67° C | 69% | 1013.8 hPa | 0 mm | - | 0 W/m² | - |
| 1778146236 | 1.67° C | 69% | 1013.6 hPa | 0 mm | - | 0 W/m² | - |
* Rain latest hour (hover to see other rain measurements)
** Current wind speed in m/s (hover to see current wind gust speed)